Location: Newark
(36.1358°N, 115.1208°W)
Time: 20:14:07
(UTC+00:00)

deb Explorer IX - Pass Details

Date: 19 February 2020
Orbit: 547 x 1100 km, 38.8° (Epoch: 30 March)

Event Time Altitude Azimuth Distance (km) Brightness Sun altitude
Rises 02:02:55 0° 274° (W) 2,953 ? -8.5°
Reaches altitude 10° 02:05:58 10° 252° (WSW) 2,138 ? -9.1°
Maximum altitude 02:08:58 16° 214° (SW) 1,858 ? -9.7°
Drops below altitude 10° 02:12:14 10° 178° (S) 2,351 ? -10.3°
Sets 02:15:51 0° 158° (SSE) 3,410 ? -11.0°
